| time (UTC) | temp C | wind direction | speed KPH | gust KPH | rain 1hr cm | rain 24hr cm | rain mn cm | humidity % | barometer mb |
| 20260504223028 | 12 | 0.0 | 0.0 | 0.00 | 0.00 | 0.00 | 81 | 1012.0 | |
| 20260504222046 | 12 | 45 | 0.0 | 3.2 | 0.00 | 0.00 | 0.00 | 81 | 1011.7 |
| 20260504221023 | 12 | 45 | 1.6 | 4.8 | 0.00 | 0.00 | 0.00 | 79 | 1011.8 |
| 20260504220020 | 12 | 48 | 1.6 | 4.8 | 0.00 | 0.00 | 0.00 | 79 | 1011.9 |
| 20260504215038 | 12 | 45 | 1.6 | 4.8 | 0.00 | 0.00 | 0.00 | 79 | 1012.0 |
| 20260504214016 | 12 | 0.0 | 1.6 | 0.00 | 0.00 | 0.00 | 78 | 1011.9 | |
| 20260504213028 | 12 | 0.0 | 1.6 | 0.00 | 0.00 | 0.00 | 77 | 1012.1 | |
| 20260504212026 | 12 | 45 | 0.0 | 3.2 | 0.00 | 0.00 | 0.00 | 77 | 1012.2 |
| 20260504211024 | 13 | 19 | 0.0 | 3.2 | 0.00 | 0.00 | 0.00 | 77 | 1012.1 |
| 20260504210021 | 13 | 39 | 3.2 | 4.8 | 0.00 | 0.00 | 0.00 | 77 | 1012.1 |
| 20260504205018 | 13 | 51 | 3.2 | 6.4 | 0.00 | 0.00 | 0.00 | 76 | 1012.2 |
| 20260504204036 | 13 | 41 | 3.2 | 4.8 | 0.00 | 0.00 | 0.00 | 74 | 1012.2 |
| 20260504203029 | 13 | 9 | 1.6 | 4.8 | 0.00 | 0.00 | 0.00 | 73 | 1012.4 |
| 20260504202026 | 13 | 34 | 0.0 | 3.2 | 0.00 | 0.00 | 0.00 | 72 | 1012.3 |
| 20260504201023 | 14 | 23 | 0.0 | 3.2 | 0.00 | 0.00 | 0.00 | 71 | 1012.3 |
| 20260504200041 | 14 | 27 | 1.6 | 3.2 | 0.00 | 0.00 | 0.00 | 71 | 1012.2 |
| 20260504195020 | 14 | 21 | 3.2 | 6.4 | 0.00 | 0.00 | 0.00 | 70 | 1012.3 |
| 20260504194016 | 14 | 45 | 1.6 | 3.2 | 0.00 | 0.00 | 0.00 | 70 | 1012.2 |
| 20260504193049 | 15 | 50 | 1.6 | 6.4 | 0.00 | 0.00 | 0.00 | 70 | 1012.4 |
| 20260504192027 | 15 | 349 | 1.6 | 6.4 | 0.00 | 0.00 | 0.00 | 69 | 1012.3 |
| 20260504191024 | 15 | 95 | 1.6 | 6.4 | 0.00 | 0.00 | 0.00 | 69 | 1012.2 |
| 20260504190022 | 15 | 26 | 6.4 | 14.5 | 0.00 | 0.00 | 0.00 | 68 | 1012.2 |
| 20260504185039 | 16 | 226 | 3.2 | 11.3 | 0.00 | 0.00 | 0.00 | 67 | 1012.2 |
| 20260504184017 | 16 | 321 | 3.2 | 12.9 | 0.00 | 0.00 | 0.00 | 66 | 1012.0 |
| 20260504183029 | 16 | 16 | 4.8 | 11.3 | 0.00 | 0.00 | 0.00 | 65 | 1011.9 |
| 20260504182047 | 17 | 1 | 1.6 | 6.4 | 0.00 | 0.00 | 0.00 | 64 | 1011.8 |
| 20260504181024 | 17 | 298 | 1.6 | 6.4 | 0.00 | 0.00 | 0.00 | 63 | 1011.7 |
| 20260504180022 | 17 | 6 | 1.6 | 4.8 | 0.00 | 0.00 | 0.00 | 62 | 1011.6 |
| 20260504175019 | 17 | 66 | 0.0 | 3.2 | 0.00 | 0.00 | 0.00 | 60 | 1011.6 |
| 20260504174017 | 17 | 52 | 1.6 | 3.2 | 0.00 | 0.00 | 0.00 | 59 | 1011.5 |
| 20260504173029 | 17 | 16 | 1.6 | 6.4 | 0.00 | 0.00 | 0.00 | 59 | 1011.5 |
| 20260504172047 | 17 | 123 | 3.2 | 11.3 | 0.00 | 0.00 | 0.00 | 58 | 1011.4 |
| 20260504171024 | 18 | 338 | 3.2 | 8.0 | 0.00 | 0.00 | 0.00 | 57 | 1011.5 |
| 20260504151025 | 22 | 57 | 3.2 | 6.4 | 0.00 | 0.00 | 0.00 | 50 | 1011.1 |
| 20260504141025 | 22 | 13 | 6.4 | 14.5 | 0.00 | 0.00 | 0.00 | 46 | 1011.3 |
| 20260504081026 | 21 | 148 | 11.3 | 19.3 | 0.00 | 0.00 | 0.00 | 52 | 1011.0 |
| 20260504050025 | 16 | 74 | 3.2 | 8.0 | 0.00 | 0.00 | 0.00 | 64 | 1009.9 |
| 20260504045023 | 16 | 81 | 3.2 | 6.4 | 0.00 | 0.00 | 0.00 | 63 | 1009.9 |
| 20260504044020 | 16 | 94 | 1.6 | 6.4 | 0.00 | 0.00 | 0.00 | 63 | 1009.8 |
| 20260504043017 | 16 | 93 | 3.2 | 6.4 | 0.00 | 0.00 | 0.00 | 62 | 1009.9 |
| 20260504042030 | 16 | 121 | 4.8 | 8.0 | 0.00 | 0.00 | 0.00 | 61 | 1009.8 |
| 20260504041027 | 16 | 116 | 3.2 | 8.0 | 0.00 | 0.00 | 0.00 | 61 | 1009.9 |
| 20260504040025 | 16 | 96 | 3.2 | 6.4 | 0.00 | 0.00 | 0.00 | 60 | 1009.8 |
| 20260504035022 | 16 | 127 | 4.8 | 6.4 | 0.00 | 0.00 | 0.00 | 60 | 1009.9 |
| 20260504034020 | 16 | 110 | 4.8 | 8.0 | 0.00 | 0.00 | 0.00 | 60 | 1009.8 |
| 20260504033017 | 16 | 86 | 1.6 | 6.4 | 0.00 | 0.00 | 0.00 | 60 | 1009.6 |
| 20260504032015 | 16 | 96 | 3.2 | 6.4 | 0.00 | 0.00 | 0.00 | 59 | 1009.7 |
| 20260504031028 | 16 | 100 | 3.2 | 9.7 | 0.00 | 0.00 | 0.00 | 58 | 1009.7 |
| 20260504030025 | 16 | 141 | 4.8 | 9.7 | 0.00 | 0.00 | 0.00 | 56 | 1009.4 |
| 20260504025023 | 16 | 101 | 4.8 | 6.4 | 0.00 | 0.00 | 0.00 | 55 | 1009.5 |
| 20260504024020 | 16 | 104 | 3.2 | 6.4 | 0.00 | 0.00 | 0.00 | 54 | 1009.5 |
| 20260504023018 | 17 | 102 | 4.8 | 8.0 | 0.00 | 0.00 | 0.00 | 54 | 1009.4 |
| 20260504022015 | 17 | 136 | 4.8 | 6.4 | 0.00 | 0.00 | 0.00 | 53 | 1009.3 |
| 20260504021028 | 17 | 104 | 4.8 | 8.0 | 0.00 | 0.00 | 0.00 | 52 | 1009.3 |
| 20260504020045 | 17 | 128 | 4.8 | 11.3 | 0.00 | 0.00 | 0.00 | 48 | 1009.4 |
| 20260504015043 | 17 | 101 | 3.2 | 6.4 | 0.00 | 0.00 | 0.00 | 47 | 1009.2 |
| 20260504014040 | 17 | 151 | 3.2 | 6.4 | 0.00 | 0.00 | 0.00 | 46 | 1009.1 |
| 20260504013018 | 18 | 84 | 4.8 | 8.0 | 0.00 | 0.00 | 0.00 | 45 | 1009.1 |
| 20260504012015 | 18 | 117 | 4.8 | 12.9 | 0.00 | 0.00 | 0.00 | 44 | 1009.0 |
| 20260504011028 | 18 | 151 | 6.4 | 12.9 | 0.00 | 0.00 | 0.00 | 44 | 1009.0 |
| 20260504010026 | 18 | 160 | 6.4 | 11.3 | 0.00 | 0.00 | 0.00 | 43 | 1009.1 |
| 20260504005023 | 18 | 119 | 6.4 | 9.7 | 0.00 | 0.00 | 0.00 | 43 | 1009.0 |
| 20260504004021 | 19 | 180 | 8.0 | 12.9 | 0.00 | 0.00 | 0.00 | 42 | 1008.9 |
| 20260504003038 | 19 | 160 | 6.4 | 12.9 | 0.00 | 0.00 | 0.00 | 42 | 1008.8 |
| 20260504002036 | 19 | 126 | 8.0 | 12.9 | 0.00 | 0.00 | 0.00 | 43 | 1008.9 |
| 20260504001028 | 19 | 156 | 9.7 | 19.3 | 0.00 | 0.00 | 0.00 | 44 | 1008.9 |
| 20260504000026 | 19 | 157 | 9.7 | 17.7 | 0.00 | 0.00 | 0.00 | 43 | 1009.1 |
| 20260503235023 | 19 | 109 | 8.0 | 14.5 | 0.00 | 0.00 | 0.00 | 43 | 1009.0 |
| 20260503234021 | 20 | 126 | 8.0 | 16.1 | 0.00 | 0.00 | 0.00 | 42 | 1008.9 |
| 20260503233018 | 20 | 123 | 4.8 | 8.0 | 0.00 | 0.00 | 0.00 | 42 | 1009.1 |
| 20260503232016 | 20 | 158 | 8.0 | 12.9 | 0.00 | 0.00 | 0.00 | 41 | 1009.1 |
| 20260503231028 | 20 | 137 | 6.4 | 12.9 | 0.00 | 0.00 | 0.00 | 41 | 1009.1 |
| 20260503230046 | 20 | 86 | 4.8 | 8.0 | 0.00 | 0.00 | 0.00 | 41 | 1009.0 |
| 20260503225023 | 20 | 114 | 4.8 | 6.4 | 0.00 | 0.00 | 0.00 | 41 | 1009.2 |
| 20260503224021 | 20 | 136 | 4.8 | 8.0 | 0.00 | 0.00 | 0.00 | 41 | 1009.1 |